Location: *
(42.5116°S, 178.4586°W)
Time: 12:31:02
(UTC+00:00)

Daily predictions for brighter satellites

Satellite Brightness Start Highest point End
(mag) Time Altitude Azimuth Time Altitude Azimuth Time Altitude Azimuth
SJ 16-02 4.0 15:57:02 14° SE 15:58:08 15° ESE 16:00:36 10° E
Cosmos 1818 4.4 16:17:40 43° NNE 16:17:40 43° NNE 16:21:12 10° NNE
Cosmos 407 Rocket 4.4 16:25:56 30° S 16:28:14 49° ESE 16:33:22 10° NE
Cosmos 1674 Rocket 4.2 16:30:20 52° ENE 16:30:20 52° ENE 16:34:08 10° NNE
Cosmos 1603 3.6 16:31:08 83° SSW 16:31:08 83° SSW 16:36:40 10° SSE
Cosmos 1140 Rocket 4.0 16:36:07 46° N 16:36:07 46° N 16:39:49 10° N
SL-8 Rocket 3.9 16:41:20 62° WSW 16:41:20 62° WSW 16:47:25 10° S
Cosmos 1315 Rocket 4.5 16:39:02 10° NNE 16:42:29 32° E 16:45:58 10° SSE
USA 281 3.4 16:39:07 10° SSE 16:45:46 72° ENE 16:52:20 10° NNW
Cosmos 1809 Rocket 4.3 16:44:07 39° SSW 16:46:24 66° W 16:52:26 10° N
Cosmos 1869 4.1 16:45:06 10° NNE 16:48:24 43° E 16:51:48 10° SSE
Cosmos 2341 Rocket 4.0 16:47:49 50° WNW 16:48:52 56° WSW 16:55:04 10° S
Landsat 7 4.4 16:48:27 10° NNE 16:53:02 56° ESE 16:57:40 10° S
Cosmos 2218 Rocket 3.9 16:47:24 10° NNW 16:53:39 60° W 16:59:54 10° S
Meteor 2-14 Rocket 4.4 16:51:01 32° SSW 16:53:48 59° W 16:59:46 10° N
BREEZE M DEB (TANK) 4.0 16:53:18 10° NNW 16:58:06 28° NNE 17:00:28 10° E
ATLAS 2AS CENTAUR R/B 2.8 16:52:06 13° NNW 16:58:37 89° ENE 17:06:01 10° SE
Gbstr 26 Del rocket 4.4 16:56:52 34° SSW 16:58:48 47° SSE 17:05:02 10° E
Cosmos 1908 Rocket 3.6 16:55:40 10° N 17:00:08 78° E 17:04:38 10° S
Meteor 2-21 4.3 16:54:05 10° SSW 17:00:10 71° W 17:06:13 10° N
Cosmos 921 Rocket 3.1 17:01:54 59° NW 17:01:54 59° NW 17:06:00 10° N
Cosmos 304 Rocket 3.6 17:00:52 46° SSW 17:02:16 79° WNW 17:07:00 10° NNE
Cosmos 1025 Rocket 2.8 17:01:58 64° SW 17:02:28 74° W 17:06:43 10° N
ATLAS 3B R/B 3.7 17:04:18 13° SSW 17:09:33 38° SE 17:15:42 10° ENE
COSMOS 2455 3.8 17:11:21 28° WNW 17:11:21 28° WNW 17:15:34 10° NNW
Cosmos 2221 Rocket 3.5 17:07:08 12° S 17:11:19 87° ESE 17:15:44 10° N
Cosmos 1484 Rocket 2.8 17:10:42 10° NNE 17:14:07 64° ESE 17:16:29 19° S
Cosmos 1697 Rocket 4.3 17:09:14 10° S 17:14:21 32° SE 17:19:25 10° ENE
Cosmos 1782 Rocket 4.3 17:10:17 10° N 17:14:36 54° E 17:18:56 10° SSE
Cosmos 405 Rocket 3.4 17:17:27 29° N 17:17:27 29° N 17:19:05 10° N
Cosmos 2366 rocket 4.5 17:12:06 10° NW 17:17:53 36° WSW 17:23:42 10° S
Cosmos 1356 Rocket 3.8 17:16:25 10° N 17:20:25 64° E 17:24:31 10° SSE
ISS -3.0 17:25:12 38° SSW 17:25:13 38° SSW 17:28:30 10° SE
SL-4 R/B 3.1 17:26:40 21° NNW 17:26:40 21° NNW 17:28:40 10° N
Cosmos 2239 Rocket 4.4 17:20:04 10° NNW 17:26:15 75° W 17:32:29 10° S
Cosmos 371 Rocket 3.4 17:24:11 27° SW 17:26:30 52° WNW 17:31:09 10° N
SPOT 1/Viking Rocket 4.1 17:24:24 10° NNE 17:29:31 61° ESE 17:34:43 10° S
Cosmos 1624 Rocket 4.5 17:24:28 10° N 17:29:45 65° ENE 17:35:04 10° SSE
Cosmos 2056 Rocket 3.8 17:24:44 10° N 17:29:48 67° ENE 17:35:00 10° SSE
Meteor 2-8 Rocket 4.5 17:28:33 10° NNW 17:34:39 60° WSW 17:40:48 10° S
Thor Agena Rocket 4.2 17:31:12 10° NNE 17:36:23 58° ESE 17:41:38 10° S
SJ 16-02 1.3 17:33:34 19° SSW 17:36:36 58° WNW 17:40:50 10° N
Cosmos 1656 3.7 17:32:27 15° SSW 17:37:08 61° WNW 17:42:32 10° N
SL-16 R/B 2.6 17:31:48 10° S 17:37:57 55° WSW 17:44:03 10° NW
Cosmos 2058 4.1 17:34:28 10° S 17:38:18 41° ESE 17:42:04 10° NNE
Cosmos 1821 Rocket 4.5 17:37:08 10° NW 17:42:37 34° WSW 17:48:13 10° S
MOS 1 Rocket 4.3 17:40:03 10° NW 17:43:44 24° W 17:44:44 22° WSW
CBERS-1 4.1 17:42:16 10° N 17:47:19 57° WNW 17:52:26 10° SSW
Cosmos 1980 Rocket 4.0 17:42:39 10° S 17:47:24 27° SE 17:52:09 10° ENE
DELTA 2 R/B (1) 4.0 17:44:32 14° WNW 17:49:14 61° N 17:54:44 10° E
Cosmos 1727 Rocket 4.3 17:44:29 10° SSW 17:50:31 45° W 17:56:31 10° NNW
Cosmos 1833 Rocket 2.6 17:46:15 10° NNW 17:51:55 80° WSW 17:57:39 10° SSE
Cosmos 1867 4.2 17:49:01 13° WNW 17:53:17 35° SW 17:58:15 10° SSE
SMAP 3.4 17:49:13 10° N 17:53:41 44° W 17:58:13 10° SSW
ARIANE 5 R/B 2.5 17:52:13 10° NNE 17:57:14 84° ESE 18:02:19 10° SSW
Cosmos 1190 Rocket 4.0 17:52:11 10° SSW 17:57:27 65° WNW 18:02:40 10° N
USA 307 3.2 17:58:18 16° SSW 17:58:18 16° SSW 17:59:07 10° S
Cosmos 2123 Rocket 4.0 17:53:44 10° SSW 17:59:57 69° W 18:06:07 10° N
Resurs 1-3 3.8 18:00:04 10° NNE 18:04:23 73° ESE 18:08:45 10° S
YAOGAN 1 2.9 18:05:24 10° NNE 18:09:39 68° ESE 18:13:58 10° S
Cosmos 1605 Rocket 4.2 18:03:59 10° N 18:10:15 81° E 18:16:31 10° S
Meteor 1-28 Rocket 3.9 18:09:36 10° SSW 18:12:22 24° WSW 18:15:04 10° NW
Cosmos 1934 Rocket 4.1 18:06:22 10° NNW 18:12:35 57° W 18:18:57 10° S
Cosmos 1954 Rocket 4.2 18:08:03 10° SSW 18:13:18 56° WNW 18:18:30 10° N
Cosmos 1371 Rocket 4.2 18:12:27 10° NW 18:17:28 49° WSW 18:22:33 10° S
Cosmos 1315 Rocket 4.2 18:15:29 10° WNW 18:18:06 17° WSW 18:20:45 10° SSW
Cosmos 1975 Rocket 3.3 18:17:00 10° SSW 18:21:22 50° W 18:25:42 10° NNW
Cosmos 972 Rocket 3.9 18:17:07 10° NNW 18:22:14 82° WSW 18:27:13 10° SSE
BREEZE-M DEB (TANK) 3.8 18:22:17 10° W 18:27:47 31° SSW 18:30:16 10° SE
Cosmos 44 Rocket 3.4 18:23:45 10° NW 18:28:17 47° SW 18:32:48 10° SSE
CZ-4C R/B 3.2 18:19:37 10° NW 18:28:33 65° SW 18:35:56 10° SSE
Cosmos 1452 Rocket 4.3 18:23:59 10° N 18:29:10 60° ENE 18:34:25 10° SSE
USA 281 4.1 18:24:26 10° S 18:29:40 26° SW 18:34:54 10° WNW
Resurs 01 Rocket 2.2 18:27:38 10° NNE 18:32:01 64° ESE 18:36:28 10° S
USA 215 3.9 18:30:04 10° ENE 18:36:27 53° SSE 18:42:51 10° SW
Cosmos 676 Rocket 4.4 18:31:43 10° SSW 18:36:50 48° WNW 18:41:56 10° N
USA 229 DEB 3.8 18:31:51 10° SW 18:37:47 44° WNW 18:43:12 10° N
USA 229 3.8 18:31:54 10° SW 18:37:51 44° WNW 18:43:16 10° N
